Weather in Koszalin

Poland     54°11′26″N   16°10′54″E
temp.,
°C
wind,
m/s
gust,
m/s
humid.,
%
clouds,
%
prec.,
mm/h
press.,
hPa
HPBL,
m
19 june, sat
sat1923:00+20se49650 0.0 1016122
02:00+20se410770 0.0 1015168
05:00+20sse49720 0.0 1015151
08:00+24sse476468 0.0 1014236
11:00+29sse56450 0.0 10141392
14:00+31ssw46390 0.0 10132074
17:00+30wsw35422 0.0 10121638
20:00+26se3661100 0.0 1013133
20 june, sun
sun2023:00+22s3575100 0.0 1013105
02:00+18nw1294100 0.0 101329
05:00+20ese3482100 0.0 101183
08:00+25sse596770 0.0 1011337
11:00+29sse69514 0.0 10101258
14:00+30s68469 0.0 10091719
17:00+31sse69452 0.0 10071637
20:00+20nw3593100 2.7 1009123
21 june, mon
mon2123:00+20ese229274 6.1 100931
02:00+19s249595 6.1 100865
05:00+18sw119594 0.0 100815
08:00+21ese348437 0.0 1008272
11:00+27sse36537 0.0 10071137
14:00+30sse784212 0.0 10051388
17:00+30se57464 0.0 10041321
20:00+18w71195100 1.2 1008430
22 june, tue
tue2223:00+15w5892100 2.2 1010471
02:00+15wnw3592100 2.2 1010286
05:00+15wnw4589100 0.0 1011480
08:00+16wnw348098 0.1 1012600
11:00+19wnw336846 0.0 1013534
14:00+20nw456897 0.0 1014547
17:00+19nw447038 0.0 1015353
20:00+18ne237917 0.0 1015135
23 june, wed
wed2323:00+15nne23865 0.0 101544
02:00+15nnw228611 0.0 101717
05:00+15n12895 0.0 101613
08:00+18nnw337688 0.0 1017390
11:00+19nnw4567100 0.0 1018514
14:00+17nw3476100 0.1 1019313
17:00+15nnw2494100 1.7 1019265
20:00+15n239320 2.3 1019150